FW4785 Weather Reports


time (UTC)temp
C
wind
direction
speed
KPH
gust
KPH
rain 1hr
cm
rain 24hr
cm
rain mn
cm
humidity
%
barometer
mb
20260504110459 13 117 1.6 3.2 0.00 0.00 0.00 94 1014.6
20260504100438 13 117 0.0 1.6 0.00 0.00 0.00 93 1015.1
20260504081839 13 117 0.0 1.6 0.00 0.00 0.00 92 1015.3
20260504081339 13 117 0.0 1.6 0.00 0.00 0.00 92 1015.6
20260504080839 13 117 0.0 3.2 0.00 0.00 0.00 92 1015.8
20260504080338 13 117 0.0 3.2 0.00 0.00 0.00 92 1015.8
20260504070329 13 117 0.0 3.2 0.00 0.00 0.00 91 1016.8
20260504050314 15 117 0.0 0.0 0.00 0.00 0.00 84 1018.2
20260504045312 15 117 0.0 1.6 0.00 0.00 0.00 85 1018.2
20260504044812 15 117 0.0 0.0 0.00 0.00 0.00 84 1018.2
20260504044312 15 117 0.0 0.0 0.00 0.00 0.00 84 1018.2
20260504044039 16 117 0.0 1.6 0.00 0.00 0.00 84 1018.1
20260504043310 16 117 1.6 1.6 0.00 0.00 0.00 84 1018.2
20260504042812 16 117 1.6 1.6 0.00 0.00 0.00 83 1018.1
20260504042537 16 117 1.6 3.2 0.00 0.00 0.00 82 1018.2
20260504041806 16 117 1.6 3.2 0.00 0.00 0.00 81 1018.1
20260504041305 16 117 1.6 4.8 0.00 0.00 0.00 81 1018.2
20260504040804 16 117 3.2 4.8 0.00 0.00 0.00 80 1018.2
20260504040304 16 147 3.2 4.8 0.00 0.00 0.00 79 1018.2
20260504035802 16 127 1.6 4.8 0.00 0.00 0.00 78 1018.1
20260504035301 16 154 1.6 3.2 0.00 0.00 0.00 78 1018.3
20260504034758 16 154 1.6 3.2 0.00 0.00 0.00 78 1018.3
20260504034252 16 154 1.6 4.8 0.00 0.00 0.00 78 1018.2
20260504033746 16 154 1.6 4.8 0.00 0.00 0.00 78 1018.2
20260504033240 16 154 1.6 3.2 0.00 0.00 0.00 78 1018.2
20260504032959 16 154 1.6 4.8 0.00 0.00 0.00 79 1018.3
20260504032231 16 154 1.6 4.8 0.00 0.00 0.00 79 1018.3
20260504031729 16 150 1.6 6.4 0.00 0.00 0.00 79 1018.1
20260504031230 16 159 1.6 6.4 0.00 0.00 0.00 79 1018.1
20260504030729 16 146 1.6 3.2 0.00 0.00 0.00 80 1018.0
20260504030229 16 146 1.6 3.2 0.00 0.00 0.00 81 1018.0
20260504025729 17 146 1.6 3.2 0.00 0.00 0.00 80 1018.0
20260504025230 17 146 3.2 4.8 0.00 0.00 0.00 79 1017.9
20260504024957 17 158 3.2 4.8 0.00 0.00 0.00 78 1018.0
20260504024230 17 150 3.2 4.8 0.00 0.00 0.00 77 1017.9
20260504023730 17 150 3.2 4.8 0.00 0.00 0.00 77 1018.1
20260504023229 17 150 3.2 6.4 0.00 0.00 0.00 77 1018.0
20260504022729 17 148 3.2 6.4 0.00 0.00 0.00 76 1018.1
20260504022229 17 162 3.2 6.4 0.00 0.00 0.00 76 1018.0
20260504021729 17 142 3.2 6.4 0.00 0.00 0.00 76 1017.9
20260504021237 17 144 3.2 6.4 0.00 0.00 0.00 75 1017.9
20260504020733 17 155 3.2 6.4 0.00 0.00 0.00 75 1017.9
20260504020230 18 169 3.2 6.4 0.00 0.00 0.00 75 1017.7
20260504015721 18 144 3.2 6.4 0.00 0.00 0.00 74 1017.7
20260504015221 18 154 1.6 6.4 0.00 0.00 0.00 74 1017.9
20260504014720 18 165 1.6 3.2 0.00 0.00 0.00 73 1017.8
20260504014219 18 140 3.2 4.8 0.00 0.00 0.00 73 1017.7
20260504013720 19 140 3.2 8.0 0.00 0.00 0.00 72 1017.7
20260504013220 19 134 3.2 8.0 0.00 0.00 0.00 70 1017.8
20260504012720 19 140 3.2 8.0 0.00 0.00 0.00 68 1017.7
20260504012218 20 146 3.2 8.0 0.00 0.00 0.00 67 1017.8
20260504011716 20 156 4.8 8.0 0.00 0.00 0.00 66 1017.9
20260504011216 20 148 4.8 9.7 0.00 0.00 0.00 65 1017.8
20260504010716 20 154 4.8 9.7 0.00 0.00 0.00 64 1017.7
20260504010444 20 162 4.8 9.7 0.00 0.00 0.00 63 1017.9
20260504005712 21 167 6.4 11.3 0.00 0.00 0.00 62 1017.8
20260504005439 21 141 8.0 12.9 0.00 0.00 0.00 61 1017.8
20260504004712 21 148 9.7 17.7 0.00 0.00 0.00 60 1017.7
20260504004212 21 139 9.7 17.7 0.00 0.00 0.00 59 1017.9
20260504003712 21 138 11.3 19.3 0.00 0.00 0.00 58 1017.8
20260504003437 22 167 11.3 19.3 0.00 0.00 0.00 57 1017.9
20260504002712 22 188 11.3 19.3 0.00 0.00 0.00 56 1017.7
20260504002212 22 145 11.3 17.7 0.00 0.00 0.00 56 1017.9
20260504001711 22 144 12.9 22.5 0.00 0.00 0.00 56 1017.8
20260504001207 22 146 12.9 22.5 0.00 0.00 0.00 54 1017.8
20260504000707 22 159 12.9 22.5 0.00 0.00 0.00 54 1017.9
20260504000207 23 128 14.5 22.5 0.00 0.00 0.00 54 1017.9
20260503235707 23 112 14.5 27.4 0.00 0.00 0.00 52 1017.7
20260503235207 23 152 14.5 27.4 0.00 0.00 0.00 52 1017.8
20260503234709 23 163 12.9 22.5 0.00 0.00 0.00 53 1017.8
20260503234437 23 190 12.9 22.5 0.00 0.00 0.00 51 1017.7
20260503233709 23 137 14.5 24.1 0.00 0.00 0.00 52 1017.7
20260503233209 23 111 16.1 24.1 0.00 0.00 0.00 51 1017.8
20260503232702 23 144 14.5 24.1 0.00 0.00 0.00 51 1017.8
20260503232203 23 107 14.5 20.9 0.00 0.00 0.00 51 1017.7
20260503231703 23 147 14.5 20.9 0.00 0.00 0.00 52 1017.9
20260503231202 24 122 14.5 19.3 0.00 0.00 0.00 51 1017.9
20260503230928 24 186 14.5 22.5 0.00 0.00 0.00 49 1017.8
20260503230201 24 154 16.1 25.7 0.00 0.00 0.00 49 1017.9
20260503225702 24 150 16.1 27.4 0.00 0.00 0.00 48 1018.0
20260503225201 24 148 14.5 27.4 0.00 0.00 0.00 49 1018.0
20260503224701 24 136 14.5 25.7 0.00 0.00 0.00 48 1018.0
20260503224427 25 121 14.5 25.7 0.00 0.00 0.00 50 1018.0
20260503223940 25 142 14.5 25.7 0.00 0.00 0.00 48 1017.9
20260503223201 25 135 12.9 24.1 0.00 0.00 0.00 48 1018.1
20260503222701 25 150 12.9 24.1 0.00 0.00 0.00 50 1018.1
20260503222200 25 115 14.5 24.1 0.00 0.00 0.00 49 1018.1
20260503221701 25 122 16.1 24.1 0.00 0.00 0.00 46 1018.2
20260503221201 25 122 16.1 24.1 0.00 0.00 0.00 47 1018.1
20260503220701 25 154 16.1 24.1 0.00 0.00 0.00 47 1018.2
20260503220202 25 146 16.1 24.1 0.00 0.00 0.00 47 1018.3
20260503215926 25 128 12.9 25.7 0.00 0.00 0.00 46 1018.6
20260503215910 25 151 16.1 25.7 0.00 0.00 0.00 48 1018.4
20260503214701 25 134 11.3 22.5 0.00 0.00 0.00 46 1018.5
20260503214201 25 150 11.3 20.9 0.00 0.00 0.00 45 1018.6
20260503213927 25 113 14.5 24.1 0.00 0.00 0.00 47 1018.5
20260503213201 25 110 16.1 24.1 0.00 0.00 0.00 46 1018.6
20260503212701 26 121 11.3 25.7 0.00 0.00 0.00 48 1018.6
20260503212434 26 128 9.7 25.7 0.00 0.00 0.00 45 1018.8
20260503211703 26 128 11.3 19.3 0.00 0.00 0.00 45 1018.8
20260503211202 26 150 12.9 20.9 0.00 0.00 0.00 46 1019.0
20260503210703 26 176 12.9 25.7 0.00 0.00 0.00 46 1018.9
20260503210202 26 115 14.5 25.7 0.00 0.00 0.00 45 1018.9
20260503205703 26 136 11.3 25.7 0.00 0.00 0.00 47 1019.0
20260503205202 26 104 9.7 19.3 0.00 0.00 0.00 48 1019.1
20260503204702 26 137 12.9 25.7 0.00 0.00 0.00 46 1019.1
20260503204202 26 130 14.5 25.7 0.00 0.00 0.00 47 1019.4
20260503203928 26 96 12.9 24.1 0.00 0.00 0.00 47 1019.3
20260503203427 26 187 11.3 22.5 0.00 0.00 0.00 49 1019.4
20260503202702 25 134 12.9 22.5 0.00 0.00 0.00 50 1019.5
20260503202202 25 149 12.9 24.1 0.00 0.00 0.00 49 1019.5
20260503201702 25 120 11.3 24.1 0.00 0.00 0.00 49 1019.5
20260503201202 25 111 11.3 24.1 0.00 0.00 0.00 46 1019.5
20260503200703 26 101 14.5 24.1 0.00 0.00 0.00 48 1019.6
20260503200202 26 122 12.9 25.7 0.00 0.00 0.00 49 1019.8
20260503195703 26 131 14.5 25.7 0.00 0.00 0.00 47 1019.8
20260503195431 26 140 14.5 24.1 0.00 0.00 0.00 49 1019.8
20260503194702 26 101 11.3 24.1 0.00 0.00 0.00 48 1019.8
20260503194202 26 144 9.7 20.9 0.00 0.00 0.00 49 1019.9
20260503193936 25 208 11.3 27.4 0.00 0.00 0.00 49 1020.0
20260503193157 25 137 12.9 27.4 0.00 0.00 0.00 50 1020.1
20260503192650 25 63 12.9 20.9 0.00 0.00 0.00 54 1020.1
20260503192145 25 146 11.3 20.9 0.00 0.00 0.00 52 1020.3
20260503191638 25 65 8.0 25.7 0.00 0.00 0.00 50 1020.4
20260503191133 25 124 11.3 25.7 0.00 0.00 0.00 48 1020.5
20260503190631 25 166 16.1 25.7 0.00 0.00 0.00 48 1020.6
20260503190623 26 118 14.5 29.0 0.00 0.00 0.00 47 1020.6
20260503185631 26 135 12.9 29.0 0.00 0.00 0.00 49 1020.6
20260503185131 26 126 17.7 27.4 0.00 0.00 0.00 47 1020.7
20260503184631 26 135 12.9 27.4 0.00 0.00 0.00 47 1020.7
20260503184131 26 70 6.4 22.5 0.00 0.00 0.00 41 1020.8
20260503183631 26 141 8.0 16.1 0.00 0.00 0.00 40 1021.0
20260503183131 26 74 8.0 17.7 0.00 0.00 0.00 44 1020.9
20260503182855 26 71 9.7 22.5 0.00 0.00 0.00 41 1021.0
20260503182131 26 121 8.0 22.5 0.00 0.00 0.00 41 1020.9
20260503181859 26 49 4.8 16.1 0.00 0.00 0.00 44 1021.0
20260503181131 26 44 8.0 32.2 0.00 0.00 0.00 42 1021.1
20260503180631 26 59 8.0 32.2 0.00 0.00 0.00 42 1021.4
20260503180133 26 85 8.0 22.5 0.00 0.00 0.00 41 1021.4
20260503175632 25 123 11.3 20.9 0.00 0.00 0.00 41 1021.7
20260503175132 25 133 11.3 20.9 0.00 0.00 0.00 39 1021.8
20260503174631 26 115 6.4 19.3 0.00 0.00 0.00 41 1021.9
20260503174127 26 36 4.8 12.9 0.00 0.00 0.00 40 1021.9
20260503173625 26 40 4.8 12.9 0.00 0.00 0.00 41 1022.1
20260503173352 26 95 4.8 12.9 0.00 0.00 0.00 38 1022.2
20260503172623 26 71 6.4 17.7 0.00 0.00 0.00 41 1022.2
20260503172123 26 70 11.3 20.9 0.00 0.00 0.00 44 1022.2
20260503171623 26 113 8.0 20.9 0.00 0.00 0.00 40 1022.3
20260503171122 26 144 4.8 17.7 0.00 0.00 0.00 42 1022.3
20260503170623 26 40 8.0 19.3 0.00 0.00 0.00 40 1022.4
20260503170123 25 69 11.3 22.5 0.00 0.00 0.00 46 1022.6
20260503160111 25 40 4.8 16.1 0.00 0.00 0.00 41 1022.8
20260503150608 23 65 4.8 12.9 0.00 0.00 0.00 56 1022.3
20260503150107 23 92 4.8 11.3 0.00 0.00 0.00 56 1022.3
20260503131101 15 5 3.2 4.8 0.00 0.00 0.00 96 1021.6
20260503130602 14 5 3.2 4.8 0.00 0.00 0.00 97 1021.6